Temp
-10 -10 -10 -10 -10 -8 -8 -8 -8 -8 -8 -8 -8 -8 -8 -8 -8 -8 -7 -8 -7 -7 -7 -7 -6 -6 -6 -7 -7 -7 -7 -6 -6 -6 -6 -6 -6 -6 -6 -6 -6 -5 -5 -5 -5 -5 -5 -6 -6
-10 -10 -10 -10 -10 -9 -9 -9 -9 -8 -8 -8 -8 -8 -8 -8 -8 -8 -7 -8 -8 -7 -7 -7 -7 -6 -6 -6 -7 -7 -7 -7 -7 -6 -6 -6 -6 -6 -6 -6 -6 -6 -5 -5 -5 -5 -5 -5 -6
-10 -10 -10 -10 -10 -9 -9 -9 -10 -9 -9 -8 -9 -8 -8 -8 -8 -8 -8 -8 -8 -8 -7 -7 -7 -6 -6 -6 -6 -7 -7 -7 -7 -7 -7 -6 -6 -6 -6 -6 -6 -6 -6 -6 -6 -5 -5 -6 -6
-10 -10 -10 -10 -10 -10 -10 -10 -10 -9 -9 -8 -9 -9 -8 -8 -8 -8 -8 -8 -8 -8 -8 -7 -7 -7 -7 -7 -6 -6 -7 -7 -7 -7 -7 -7 -6 -6 -6 -6 -6 -6 -6 -6 -6 -6 -6 -6 -6
-11 -11 -11 -10 -10 -10 -11 -10 -10 -9 -9 -10 -9 -8 -8 -8 -8 -8 -8 -8 -8 -8 -8 -7 -8 -8 -8 -8 -7 -6 -6 -7 -7 -7 -7 -7 -7 -7 -7 -7 -7 -6 -6 -6 -6 -6 -6 -6 -6
-12 -12 -11 -11 -11 -11 -11 -11 -11 -10 -10 -9 -9 -9 -8 -8 -8 -8 -8 -8 -8 -8 -8 -8 -7 -8 -8 -8 -8 -7 -7 -6 -7 -7 -7 -7 -7 -7 -7 -7 -7 -7 -7 -6 -6 -6 -6 -6 -6
-12 -12 -12 -11 -12 -11 -11 -11 -11 -11 -10 -10 -9 -8 -8 -9 -8 -8 -8 -8 -8 -8 -8 -8 -8 -8 -8 -8 -8 -8 -8 -7 -7 -7 -7 -8 -7 -7 -7 -7 -7 -7 -7 -7 -7 -6 -6 -6 -6
-13 -12 -12 -13 -12 -12 -11 -11 -11 -11 -11 -11 -10 -8 -9 -9 -9 -8 -9 -8 -8 -8 -8 -7 -8 -8 -8 -8 -8 -8 -8 -8 -7 -7 -7 -7 -8 -8 -8 -8 -8 -8 -7 -7 -7 -7 -7 -6 -7
-13 -13 -13 -14 -13 -13 -12 -12 -12 -12 -11 -11 -11 -10 -10 -10 -10 -8 -8 -8 -8 -8 -8 -8 -7 -8 -8 -8 -9 -8 -8 -8 -7 -7 -7 -7 -8 -8 -8 -8 -8 -8 -8 -7 -7 -7 -7 -7 -7
-14 -14 -14 -14 -14 -14 -13 -13 -13 -12 -12 -12 -12 -11 -10 -9 -10 -9 -8 -8 -8 -8 -9 -8 -8 -7 -8 -8 -9 -9 -8 -8 -8 -8 -8 -8 -8 -8 -8 -8 -8 -8 -8 -8 -8 -7 -7 -7 -7
-15 -15 -15 -15 -14 -14 -14 -13 -13 -13 -13 -13 -12 -11 -10 -9 -9 -9 -9 -8 -8 -8 -9 -9 -8 -8 -8 -8 -9 -9 -9 -9 -8 -9 -8 -8 -8 -8 -8 -8 -8 -8 -8 -8 -8 -8 -8 -7 -7
-16 -16 -15 -15 -15 -14 -14 -14 -14 -13 -13 -12 -12 -11 -11 -10 -10 -10 -10 -10 -9 -8 -9 -9 -9 -8 -8 -8 -8 -9 -9 -9 -9 -9 -9 -8 -8 -8 -8 -8 -8 -9 -9 -8 -8 -8 -8 -8 -8
-16 -16 -16 -15 -15 -15 -14 -15 -14 -15 -13 -13 -13 -12 -12 -12 -11 -10 -9 -10 -10 -9 -8 -9 -9 -9 -8 -8 -8 -9 -9 -9 -9 -9 -9 -9 -9 -8 -8 -8 -8 -8 -9 -9 -8 -8 -8 -8 -8
-17 -16 -16 -16 -16 -15 -15 -16 -14 -14 -13 -13 -13 -13 -12 -12 -12 -11 -11 -10 -10 -10 -9 -9 -9 -9 -8 -9 -9 -9 -9 -9 -9 -9 -9 -9 -9 -9 -9 -9 -9 -9 -9 -9 -9 -8 -8 -8 -8
-16 -16 -16 -16 -15 -15 -16 -16 -15 -15 -15 -15 -15 -16 -14 -12 -11 -11 -11 -10 -10 -10 -10 -9 -9 -9 -9 -8 -9 -9 -9 -9 -9 -9 -10 -9 -10 -9 -9 -9 -9 -9 -9 -9 -9 -9 -8 -8 -8
-16 -16 -16 -16 -16 -16 -16 -16 -15 -15 -15 -15 -15 -15 -15 -15 -14 -13 -11 -10 -10 -10 -10 -10 -9 -9 -9 -9 -9 -9 -9 -9 -9 -9 -10 -10 -10 -9 -10 -9 -9 -9 -9 -9 -9 -9 -9 -8 -8
-16 -16 -16 -16 -16 -16 -16 -16 -15 -15 -14 -14 -15 -14 -14 -14 -14 -14 -15 -11 -10 -10 -10 -10 -9 -9 -9 -9 -9 -9 -9 -9 -10 -9 -9 -10 -10 -9 -9 -10 -10 -10 -10 -10 -9 -9 -9 -9 -9
-16 -16 -16 -17 -16 -16 -16 -16 -15 -15 -15 -15 -14 -15 -15 -14 -14 -14 -14 -14 -12 -10 -10 -10 -10 -10 -9 -9 -9 -9 -10 -10 -9 -9 -9 -9 -10 -10 -9 -10 -10 -10 -10 -10 -10 -10 -10 -9 -9
-17 -17 -17 -17 -17 -16 -17 -16 -16 -15 -15 -15 -14 -15 -15 -14 -14 -14 -14 -14 -14 -11 -10 -9 -10 -10 -10 -10 -9 -9 -9 -11 -9 -9 -9 -9 -10 -9 -10 -10 -9 -10 -10 -10 -10 -10 -10 -10 -10
-18 -18 -18 -18 -17 -16 -17 -16 -16 -15 -15 -15 -14 -15 -13 -13 -14 -13 -13 -14 -15 -14 -13 -10 -9 -10 -10 -10 -10 -10 -10 -10 -10 -10 -10 -10 -10 -10 -10 -11 -10 -10 -10 -10 -10 -10 -10 -10 -10
-20 -20 -18 -17 -18 -17 -16 -16 -16 -15 -14 -14 -15 -14 -13 -13 -13 -13 -13 -13 -15 -16 -16 -14 -10 -9 -10 -10 -11 -10 -10 -10 -9 -9 -9 -10 -11 -10 -10 -10 -10 -11 -11 -10 -10 -10 -10 -10 -10
-22 -21 -19 -19 -18 -17 -16 -16 -16 -15 -15 -15 -14 -14 -13 -14 -13 -13 -12 -13 -14 -15 -15 -15 -14 -11 -9 -10 -11 -11 -10 -10 -9 -8 -9 -10 -10 -10 -10 -10 -11 -11 -11 -11 -11 -11 -10 -10 -11
-23 -22 -20 -20 -19 -17 -16 -16 -16 -16 -16 -15 -15 -15 -13 -14 -13 -13 -12 -14 -15 -16 -16 -16 -16 -13 -11 -12 -11 -11 -11 -10 -9 -11 -10 -10 -10 -11 -11 -10 -11 -11 -11 -11 -11 -11 -11 -11 -11
-22 -22 -21 -20 -18 -17 -16 -17 -17 -16 -16 -15 -15 -15 -14 -14 -13 -14 -13 -14 -15 -15 -15 -15 -16 -15 -13 -12 -12 -12 -12 -11 -11 -10 -10 -9 -10 -10 -10 -10 -11 -11 -11 -11 -10 -11 -11 -11 -11
-21 -21 -21 -20 -19 -18 -19 -18 -17 -16 -16 -16 -15 -15 -14 -14 -14 -13 -14 -15 -15 -14 -14 -14 -14 -13 -14 -14 -13 -12 -11 -11 -10 -10 -9 -10 -10 -10 -9 -10 -11 -10 -11 -11 -10 -11 -11 -11 -11
-21 -21 -21 -20 -20 -20 -19 -18 -17 -17 -16 -16 -15 -15 -14 -14 -14 -14 -14 -14 -14 -15 -14 -14 -14 -14 -15 -14 -12 -12 -11 -11 -11 -10 -10 -10 -10 -11 -10 -10 -9 -10 -10 -10 -10 -11 -11 -11 -11
-20 -20 -20 -20 -20 -19 -19 -18 -18 -17 -16 -16 -16 -15 -14 -14 -14 -14 -14 -14 -13 -14 -14 -15 -15 -14 -14 -14 -13 -13 -12 -10 -11 -11 -10 -10 -10 -10 -10 -11 -10 -10 -10 -11 -11 -11 -11 -11 -11
-19 -19 -19 -19 -19 -18 -18 -18 -17 -17 -17 -16 -16 -15 -15 -15 -15 -14 -14 -14 -14 -14 -15 -15 -15 -16 -15 -14 -14 -13 -12 -11 -11 -11 -11 -10 -10 -11 -11 -11 -10 -11 -11 -11 -11 -11 -11 -11 -10
-19 -19 -18 -18 -18 -18 -17 -17 -17 -17 -17 -16 -16 -15 -15 -15 -15 -14 -15 -14 -14 -14 -14 -14 -14 -14 -14 -13 -13 -12 -12 -11 -11 -11 -11 -11 -11 -11 -11 -11 -11 -11 -11 -11 -11 -11 -12 -11 -11
-16 -17 -17 -18 -17 -16 -16 -17 -17 -16 -16 -16 -16 -15 -15 -15 -15 -15 -15 -14 -14 -14 -14 -14 -14 -14 -13 -13 -13 -12 -11 -12 -12 -12 -11 -11 -11 -12 -11 -11 -12 -12 -11 -12 -12 -12 -12 -11 -12
Height
5792 5794 5795 5798 5802 5803 5806 5811 5817 5822 5825 5828 5831 5834 5839 5842 5845 5848 5850 5854 5855 5857 5860 5862 5865 5868 5871 5874 5876 5878 5880 5881 5883 5884 5884 5885 5887 5888 5889 5890 5892 5894 5895 5896 5897 5898 5898 5899 5900
5785 5788 5790 5791 5793 5795 5800 5805 5812 5811 5816 5820 5823 5826 5830 5835 5838 5841 5845 5849 5851 5853 5856 5858 5860 5863 5866 5869 5872 5875 5877 5879 5881 5883 5883 5884 5885 5887 5888 5890 5891 5893 5894 5895 5896 5898 5898 5898 5900
5779 5780 5783 5784 5787 5791 5790 5795 5800 5800 5806 5810 5814 5818 5821 5829 5833 5835 5839 5844 5846 5848 5851 5853 5856 5859 5862 5864 5868 5871 5873 5876 5878 5879 5881 5882 5883 5885 5886 5888 5889 5891 5892 5894 5895 5896 5897 5897 5899
5772 5774 5776 5778 5780 5782 5781 5785 5789 5789 5794 5798 5805 5810 5816 5820 5824 5827 5832 5835 5840 5842 5846 5848 5851 5854 5857 5860 5862 5866 5869 5872 5875 5877 5878 5880 5881 5882 5884 5886 5887 5889 5891 5893 5894 5895 5896 5897 5897
5763 5766 5767 5771 5772 5773 5771 5774 5779 5779 5780 5787 5794 5801 5808 5811 5816 5820 5824 5827 5833 5837 5840 5843 5846 5849 5852 5854 5857 5860 5863 5867 5870 5873 5876 5877 5879 5880 5882 5883 5885 5887 5889 5890 5892 5893 5895 5896 5897
5755 5757 5760 5763 5763 5762 5763 5762 5766 5769 5772 5779 5784 5791 5800 5803 5807 5813 5816 5822 5823 5829 5834 5837 5841 5844 5846 5849 5851 5855 5858 5861 5866 5869 5872 5875 5876 5878 5880 5881 5883 5885 5886 5888 5890 5892 5893 5895 5896
5746 5748 5751 5752 5753 5753 5753 5752 5753 5761 5765 5770 5775 5780 5790 5794 5797 5804 5809 5813 5817 5819 5825 5830 5835 5838 5840 5843 5846 5849 5853 5857 5860 5864 5867 5870 5873 5876 5878 5879 5880 5882 5884 5886 5888 5890 5891 5892 5894
5737 5739 5741 5739 5742 5743 5743 5745 5746 5751 5757 5760 5763 5769 5778 5782 5784 5791 5798 5804 5809 5812 5816 5822 5827 5832 5835 5838 5840 5843 5846 5850 5855 5858 5862 5866 5869 5873 5875 5877 5878 5879 5881 5884 5886 5887 5889 5890 5892
5727 5730 5729 5728 5731 5734 5735 5737 5737 5740 5746 5748 5752 5755 5760 5766 5772 5778 5785 5791 5798 5804 5807 5812 5817 5822 5828 5833 5836 5837 5840 5843 5848 5852 5856 5861 5864 5868 5871 5874 5876 5877 5878 5880 5883 5885 5886 5888 5889
5718 5720 5718 5719 5720 5723 5726 5726 5726 5731 5731 5737 5736 5740 5744 5753 5761 5767 5775 5781 5785 5792 5798 5802 5807 5813 5818 5824 5828 5832 5835 5838 5842 5847 5851 5855 5859 5863 5867 5870 5873 5874 5876 5877 5879 5881 5883 5885 5886
5710 5708 5707 5708 5711 5712 5714 5715 5716 5717 5719 5717 5723 5731 5732 5740 5748 5754 5760 5768 5774 5779 5786 5792 5798 5804 5809 5816 5819 5823 5829 5833 5836 5841 5846 5850 5854 5858 5862 5865 5868 5870 5872 5874 5875 5877 5879 5881 5883
5701 5697 5699 5698 5700 5702 5703 5705 5704 5703 5704 5704 5713 5718 5723 5726 5734 5740 5744 5752 5761 5768 5776 5781 5787 5794 5801 5807 5810 5816 5820 5827 5831 5835 5841 5845 5848 5852 5857 5860 5863 5865 5868 5870 5872 5873 5875 5877 5879
5690 5690 5690 5691 5693 5693 5694 5691 5693 5689 5697 5699 5703 5708 5713 5714 5717 5725 5730 5736 5743 5754 5761 5770 5776 5783 5789 5796 5802 5807 5812 5818 5824 5829 5835 5838 5841 5845 5849 5853 5857 5860 5863 5866 5868 5869 5871 5873 5874
5683 5683 5683 5684 5685 5685 5685 5680 5684 5683 5690 5687 5689 5691 5694 5697 5700 5710 5718 5723 5731 5738 5746 5755 5763 5772 5778 5785 5792 5798 5803 5810 5816 5823 5828 5832 5835 5839 5842 5846 5848 5853 5856 5859 5862 5865 5866 5867 5869
5675 5677 5676 5678 5680 5680 5678 5678 5677 5680 5680 5680 5678 5678 5679 5683 5686 5693 5697 5702 5714 5724 5730 5738 5750 5757 5766 5773 5781 5787 5793 5801 5807 5815 5821 5825 5830 5834 5836 5838 5842 5845 5849 5852 5855 5858 5861 5862 5864
5667 5670 5670 5672 5673 5674 5674 5674 5675 5676 5676 5675 5674 5673 5674 5673 5674 5675 5682 5687 5692 5704 5716 5722 5733 5744 5752 5760 5769 5775 5783 5791 5799 5807 5812 5816 5821 5827 5829 5831 5835 5838 5841 5845 5849 5852 5854 5856 5858
5660 5662 5664 5664 5666 5668 5671 5670 5671 5670 5669 5669 5668 5668 5667 5666 5664 5663 5665 5670 5678 5684 5695 5706 5716 5730 5739 5748 5756 5763 5772 5780 5790 5798 5804 5807 5812 5818 5822 5825 5827 5831 5834 5837 5841 5844 5847 5849 5852
5652 5653 5655 5656 5659 5664 5664 5666 5666 5665 5663 5662 5662 5661 5658 5656 5655 5652 5654 5656 5659 5666 5678 5689 5697 5711 5726 5734 5743 5752 5761 5771 5780 5786 5794 5797 5804 5809 5813 5817 5820 5823 5827 5831 5835 5837 5838 5840 5843
5642 5644 5646 5649 5650 5656 5658 5662 5662 5660 5657 5656 5655 5654 5651 5647 5645 5641 5641 5643 5646 5649 5658 5672 5680 5694 5707 5720 5732 5742 5750 5759 5767 5776 5783 5790 5795 5800 5801 5808 5811 5814 5820 5823 5825 5828 5832 5834 5836
5631 5634 5636 5641 5644 5649 5651 5656 5657 5654 5653 5650 5648 5647 5644 5641 5640 5637 5634 5631 5633 5634 5639 5647 5664 5676 5692 5709 5722 5731 5742 5752 5762 5769 5776 5782 5786 5789 5792 5797 5802 5807 5811 5815 5818 5820 5823 5825 5828
5619 5621 5628 5635 5637 5642 5648 5651 5650 5649 5649 5645 5646 5642 5639 5636 5633 5630 5626 5622 5621 5625 5630 5633 5642 5659 5676 5694 5707 5719 5730 5739 5749 5758 5765 5769 5775 5780 5783 5790 5795 5799 5804 5805 5809 5813 5815 5817 5820
5609 5612 5621 5627 5632 5639 5644 5646 5643 5647 5647 5643 5643 5638 5634 5633 5627 5624 5621 5615 5614 5616 5619 5623 5628 5642 5661 5679 5692 5706 5722 5733 5743 5751 5755 5762 5767 5771 5776 5783 5786 5789 5794 5795 5801 5803 5807 5809 5811
5607 5606 5612 5621 5629 5636 5640 5641 5641 5644 5644 5642 5640 5634 5632 5628 5620 5620 5617 5612 5608 5608 5610 5617 5622 5630 5646 5666 5683 5696 5711 5722 5730 5737 5742 5750 5755 5761 5768 5771 5776 5779 5782 5786 5790 5793 5798 5800 5802
5605 5606 5611 5620 5628 5634 5636 5637 5641 5644 5644 5641 5638 5633 5631 5626 5619 5618 5616 5612 5607 5606 5609 5615 5625 5630 5644 5657 5673 5688 5702 5712 5720 5726 5734 5740 5747 5754 5759 5761 5765 5769 5770 5774 5776 5781 5787 5790 5791
5612 5614 5617 5623 5628 5632 5634 5640 5642 5643 5643 5641 5639 5634 5631 5626 5621 5618 5619 5615 5613 5608 5613 5615 5627 5633 5642 5652 5668 5683 5693 5704 5713 5718 5723 5733 5735 5741 5748 5751 5756 5760 5763 5764 5768 5773 5776 5777 5780
5624 5625 5626 5628 5631 5634 5638 5641 5643 5644 5643 5640 5639 5637 5631 5630 5624 5620 5619 5618 5618 5619 5624 5627 5631 5638 5641 5652 5666 5678 5690 5698 5707 5709 5713 5719 5721 5732 5738 5741 5748 5752 5753 5756 5760 5764 5765 5769 5771
5633 5632 5632 5633 5635 5637 5640 5643 5644 5643 5643 5642 5641 5639 5635 5633 5632 5631 5628 5626 5624 5627 5628 5627 5629 5631 5640 5653 5665 5677 5683 5691 5696 5701 5707 5708 5714 5724 5727 5732 5738 5740 5743 5747 5752 5754 5758 5760 5760
5639 5639 5638 5637 5638 5640 5641 5643 5643 5642 5644 5644 5642 5640 5638 5637 5636 5636 5634 5631 5631 5629 5632 5630 5631 5634 5642 5657 5667 5673 5682 5689 5694 5697 5703 5707 5709 5715 5721 5725 5729 5734 5734 5740 5742 5745 5747 5748 5748
5646 5644 5642 5642 5642 5642 5643 5644 5644 5644 5643 5644 5644 5643 5641 5641 5638 5638 5637 5636 5636 5636 5637 5635 5638 5646 5656 5662 5669 5675 5680 5684 5691 5696 5701 5705 5705 5710 5714 5719 5721 5724 5727 5729 5731 5734 5736 5735 5735
5655 5651 5647 5646 5646 5645 5644 5646 5644 5644 5643 5644 5644 5643 5644 5642 5641 5640 5639 5639 5640 5639 5642 5643 5646 5650 5655 5661 5665 5670 5677 5684 5687 5691 5694 5697 5700 5705 5709 5712 5714 5718 5721 5722 5724 5725 5727 5728 5728
Wind_Speed
34 34 34 39 46 54 54 52 46 42 41 40 40 39 36 34 32 32 29 25 26 25 23 27 33 34 30 25 24 22 20 17 14 11 12 10 8 7 7 4 6 6 4 5 4 5 4 4 2
33 34 36 37 39 44 49 51 48 50 46 42 42 42 42 38 38 36 33 29 28 28 26 25 27 35 35 31 27 25 23 21 18 14 12 13 10 8 7 5 8 7 5 5 3 3 4 4 0
33 32 34 36 38 39 42 41 47 53 51 49 46 44 46 43 41 40 37 34 32 32 31 29 27 27 36 37 32 30 27 25 21 18 16 13 14 10 8 7 8 8 7 5 4 3 3 4 2
39 40 41 39 38 39 44 41 42 51 55 55 51 47 47 46 45 45 42 39 37 35 34 32 30 29 29 38 38 34 32 28 25 21 19 16 13 13 8 7 8 10 8 7 6 5 5 4 3
39 41 42 42 41 43 46 46 44 48 55 57 56 52 49 50 50 48 47 45 41 40 38 36 33 31 31 31 39 38 36 33 29 26 23 19 15 14 12 8 8 10 9 8 7 7 7 7 6
41 41 41 41 42 46 46 49 48 48 50 53 57 57 53 52 53 52 50 48 47 44 42 39 36 34 33 33 32 38 39 37 34 30 27 23 19 15 14 12 8 10 11 10 9 8 8 8 8
42 41 40 42 43 46 47 51 54 50 48 49 54 59 56 54 56 55 54 52 52 50 46 44 42 38 36 35 35 34 38 39 38 36 32 27 23 18 14 15 12 10 11 11 10 9 9 9 10
42 43 41 43 47 49 52 53 54 54 50 50 51 55 57 56 59 59 57 56 55 55 52 49 45 43 40 39 38 37 36 40 41 39 37 33 28 22 16 14 15 13 11 11 11 10 9 10 11
45 45 45 47 48 50 51 51 53 55 54 52 51 54 57 58 61 63 61 61 59 57 57 56 53 49 47 44 42 41 38 38 43 42 39 38 33 26 22 17 15 16 15 13 12 12 12 12 12
43 46 46 47 48 45 46 48 51 51 54 52 54 56 59 60 61 64 64 64 64 62 61 60 57 56 52 48 46 45 42 40 39 43 41 40 38 33 27 22 16 17 17 18 15 14 14 14 14
42 42 43 44 44 43 44 45 47 49 49 54 56 56 60 61 61 65 66 66 66 66 64 63 60 57 56 51 48 45 44 42 41 40 42 41 39 37 33 27 21 18 18 19 19 17 16 16 16
37 38 38 41 42 41 42 43 46 49 52 56 55 57 58 60 61 63 67 66 66 69 67 66 64 61 59 57 55 50 47 44 43 40 41 42 41 39 36 33 28 23 20 19 20 19 19 18 18
33 35 38 38 35 38 40 44 46 50 51 54 54 55 57 60 60 61 67 68 71 70 71 69 67 64 62 61 56 55 53 48 44 42 38 43 43 42 39 37 34 31 25 22 21 21 21 20 19
29 34 34 28 21 20 23 25 43 47 49 54 56 60 61 61 62 59 61 68 68 73 73 73 71 67 66 61 61 56 55 53 50 45 41 41 45 44 41 39 38 35 32 28 25 23 23 23 23
31 28 31 27 23 16 12 18 19 14 18 19 23 26 36 56 63 63 63 66 66 70 76 76 74 73 68 66 61 62 57 52 53 51 45 39 42 46 43 41 39 37 35 33 30 27 26 26 25
26 28 32 31 25 18 15 18 14 18 21 23 27 27 27 28 38 50 64 67 70 67 71 77 78 77 73 70 64 64 62 57 53 52 50 44 44 45 49 46 43 40 38 36 32 30 29 28 28
30 30 31 34 29 24 20 16 15 17 18 14 17 23 27 28 29 34 41 58 71 71 70 73 78 79 77 73 69 68 65 60 53 49 45 47 49 49 50 49 46 44 41 38 37 34 32 30 30
32 31 31 30 33 27 24 20 18 20 23 21 19 21 26 31 30 34 36 37 53 70 73 74 75 76 79 78 74 68 66 62 53 55 49 36 56 52 51 49 48 48 45 40 38 37 35 33 32
37 38 35 33 34 31 29 25 22 26 26 27 24 23 26 31 33 35 42 43 45 57 66 74 77 74 73 77 76 72 65 65 60 55 52 41 49 59 56 52 54 53 48 44 43 41 38 36 34
33 31 31 30 32 32 28 26 26 28 25 26 24 20 20 23 23 28 31 36 38 49 55 70 75 76 72 70 72 71 66 60 61 56 46 49 50 63 60 57 52 51 50 47 47 44 39 38 36
30 33 30 26 24 25 24 25 28 27 19 21 19 11 12 20 19 21 20 31 38 40 42 53 72 75 73 68 68 69 64 63 58 57 51 54 54 56 60 59 50 51 49 45 50 49 44 42 40
18 27 25 24 22 19 17 20 27 21 19 22 16 17 17 10 14 10 11 25 31 38 39 42 56 74 71 70 69 68 64 59 55 53 53 51 47 59 56 57 52 47 49 52 52 52 47 46 45
12 7 20 18 17 16 16 20 23 19 19 18 15 16 11 15 21 9 9 8 17 29 34 40 37 64 71 62 69 66 60 57 56 52 51 52 52 54 53 47 56 57 55 58 54 53 49 46 47
9 7 15 17 17 17 19 20 18 14 13 19 19 20 5 12 6 7 5 8 10 9 5 20 21 36 56 62 66 61 58 58 56 58 52 50 56 62 48 48 58 55 62 57 63 46 49 52 51
21 17 18 17 18 16 12 8 9 10 10 12 10 13 6 11 13 7 9 4 13 2 11 12 9 27 53 58 58 53 53 58 53 53 59 60 55 53 58 49 55 55 63 47 54 53 53 50 59
27 22 13 11 10 5 2 1 2 5 5 9 12 7 7 11 18 13 12 17 18 18 19 15 15 30 44 56 58 52 50 47 42 48 41 57 58 56 51 52 53 61 57 49 52 50 56 55 54
25 21 17 12 8 6 5 4 6 4 3 6 14 5 16 6 10 14 14 5 9 6 2 7 14 22 46 53 44 45 47 51 42 31 34 38 54 60 39 46 48 50 50 47 55 54 55 64 62
23 20 19 12 7 4 2 6 8 9 10 7 8 8 9 13 16 8 12 11 12 4 11 6 10 22 52 46 32 47 49 53 49 36 31 32 27 34 38 44 46 47 39 45 43 47 52 55 52
24 17 15 13 7 2 3 4 7 9 9 10 6 6 11 15 16 15 15 15 17 16 9 14 24 27 25 32 40 47 37 39 35 28 30 35 28 30 35 35 41 42 50 40 41 46 47 55 50
44 37 21 10 5 4 8 9 11 10 9 8 3 7 8 12 9 14 18 11 12 18 18 17 12 11 14 22 22 27 41 37 26 28 24 22 30 34 37 40 34 34 40 44 46 49 51 52 53
Wind_Direction
253 253 251 250 250 250 250 251 252 250 246 242 239 238 233 233 234 238 241 235 238 239 240 236 237 242 240 235 227 223 225 221 224 217 201 194 196 184 185 177 172 162 130 108 77 69 96 99 88
259 255 256 254 255 254 255 256 254 250 246 242 239 237 234 230 231 234 235 230 236 239 238 239 235 236 241 238 233 228 225 225 223 228 218 204 199 201 199 202 186 179 175 148 136 107 118 104 153
258 258 260 261 261 262 261 258 255 252 247 243 238 235 234 231 229 233 236 231 231 237 237 239 238 237 239 240 236 234 229 229 226 226 228 217 205 206 207 203 199 202 191 187 174 183 165 147 194
260 262 264 260 262 263 260 257 254 252 249 244 242 237 233 230 228 227 228 231 227 232 236 236 239 238 239 240 238 234 234 231 231 231 232 230 215 207 211 210 205 206 207 206 201 215 215 193 206
259 260 259 260 261 261 259 256 251 250 247 246 242 239 233 231 228 227 226 231 229 227 232 234 236 238 238 239 241 235 233 233 232 232 235 234 230 215 205 216 218 216 215 216 223 223 230 227 224
263 260 261 260 258 257 258 257 251 249 250 249 246 241 236 231 231 228 227 225 231 229 229 234 233 233 236 238 241 242 236 232 234 233 235 237 234 225 215 212 224 228 227 221 222 234 236 243 242
263 263 261 260 259 255 255 255 254 251 250 251 248 245 239 237 233 230 229 226 228 231 230 230 232 231 233 235 236 241 242 236 233 233 234 235 236 234 228 219 220 230 234 234 227 233 249 248 249
269 268 265 262 259 256 253 254 257 257 254 252 251 245 243 239 237 230 229 230 227 230 231 232 230 231 234 237 237 237 239 242 235 234 235 235 236 237 235 234 231 230 231 236 232 236 243 256 257
271 273 268 265 261 258 255 254 256 257 257 256 253 250 242 239 238 235 228 228 228 228 230 231 231 232 235 239 239 238 238 240 241 234 234 236 236 235 240 237 238 239 237 233 233 237 248 251 256
273 271 267 265 264 260 257 255 255 256 257 256 252 250 246 239 237 238 235 229 228 228 229 232 232 232 233 233 237 238 237 240 245 240 233 234 236 236 237 239 241 246 246 241 237 237 244 254 257
273 266 263 258 257 256 253 254 255 255 252 250 250 249 249 242 237 237 238 234 230 228 227 230 233 233 233 231 234 235 239 236 239 238 235 234 237 238 238 239 239 244 249 250 247 244 247 256 261
262 257 256 255 254 252 251 250 249 250 247 248 248 249 250 251 244 238 237 236 233 231 228 228 230 231 236 235 234 235 236 238 238 239 237 236 236 237 238 240 241 243 248 252 254 252 249 250 260
257 258 257 255 260 258 256 254 252 255 255 257 256 255 253 252 250 244 238 236 234 230 230 229 229 230 231 235 238 236 237 236 238 236 236 238 234 233 234 235 239 243 247 252 256 259 257 252 253
257 256 256 256 247 253 253 254 250 255 255 257 257 253 252 251 251 249 246 241 236 234 230 227 229 229 231 230 235 238 238 235 237 236 239 239 237 233 230 232 234 238 242 247 254 260 261 257 255
262 248 253 237 238 241 251 261 255 251 257 261 267 263 256 254 253 248 242 239 238 235 234 230 225 229 228 230 231 235 237 236 234 237 235 237 240 237 234 231 233 234 238 242 247 253 261 261 259
253 252 243 232 240 245 259 266 261 262 270 270 264 265 259 262 253 253 249 241 237 230 235 234 229 226 228 229 229 233 234 235 237 241 234 233 242 246 238 234 234 235 235 240 245 249 254 257 259
253 243 233 240 240 243 243 260 270 273 272 277 261 264 263 260 260 257 249 246 242 237 228 232 234 227 227 228 228 229 232 234 233 236 240 237 236 244 244 237 236 237 235 237 242 246 252 255 256
255 251 240 237 244 239 240 252 267 278 275 286 275 282 272 264 264 258 250 246 243 240 236 228 229 231 226 228 228 227 227 229 226 239 234 241 233 239 241 240 242 241 239 239 243 246 249 252 254
255 252 246 243 243 247 243 248 259 271 275 283 288 286 269 264 254 250 249 250 241 237 235 233 229 228 227 227 227 229 226 226 227 227 238 239 233 232 235 244 245 243 240 240 242 243 249 253 254
261 254 252 246 244 243 249 260 264 265 268 281 289 285 264 262 265 258 258 252 244 235 232 226 227 227 225 224 228 228 227 228 229 232 238 238 239 232 233 237 239 242 242 245 245 246 247 252 254
263 253 245 241 242 243 243 249 254 261 273 285 306 293 269 269 258 277 252 245 239 235 230 223 220 221 223 220 222 226 222 223 224 230 230 234 232 226 231 242 238 242 246 247 246 246 246 249 252
261 259 245 235 232 229 230 234 248 252 273 298 315 287 291 277 299 221 245 254 242 235 227 224 218 213 217 217 218 222 222 223 229 234 230 227 239 232 237 243 239 241 242 245 248 247 249 250 254
9 231 221 215 209 205 221 237 245 255 285 288 306 334 250 323 319 234 354 274 262 250 239 230 225 212 210 208 214 217 217 219 223 230 225 233 239 241 234 242 237 243 241 246 240 250 251 251 255
55 119 156 162 179 188 217 236 241 259 293 303 297 327 346 325 48 91 30 148 81 86 145 195 228 208 203 203 208 211 209 217 224 230 225 242 231 232 241 242 236 238 245 244 242 246 253 253 252
69 96 124 141 160 188 218 234 249 261 312 337 325 341 355 28 25 56 138 90 89 163 101 169 181 200 201 197 196 201 215 216 222 236 240 242 231 231 238 239 235 238 245 232 242 253 250 251 254
71 66 82 115 124 146 127 52 307 286 311 356 4 342 12 42 48 60 124 99 105 144 163 250 234 224 211 195 190 192 201 213 225 225 230 230 231 232 242 236 222 238 241 242 241 254 260 252 267
55 58 64 73 82 80 119 43 14 334 34 32 40 58 87 93 53 80 111 66 343 253 220 214 233 219 201 194 197 207 205 209 218 230 217 228 225 229 234 229 229 234 234 252 250 256 265 264 265
55 56 63 66 85 84 91 26 6 10 11 344 336 98 96 87 28 72 105 98 83 164 165 203 218 205 185 189 215 211 210 219 235 229 221 230 219 223 229 229 231 244 245 244 252 258 257 261 264
50 53 58 64 77 45 287 312 330 341 337 336 310 49 353 6 25 12 56 102 110 99 96 196 177 184 177 201 207 207 230 220 230 226 226 224 232 223 228 231 239 252 255 262 262 260 258 261 263
51 53 51 43 44 246 268 283 289 303 307 310 335 267 10 6 44 23 22 128 101 113 99 107 129 159 182 188 183 208 226 221 222 249 252 239 246 236 238 244 249 256 250 252 258 258 257 259 264